UAE440 OMDB-YPAD

Flight info

Callsign UAE440
Flight time N/A
Altitude 35000
Route ANVIX L223 TARDI N629 GIDAN P570 KITAL L894 BOLUR/N0497F370 L894 BIBGO DCT SOLIH/N0490F390 DCT 06S081E 10S085E 12S087E 18S093E 20S096E 23S101E/N0487F410 25S105E DCT BYLLA DCT 29S117E DCT SEVSI DCT 32S128E DCT KAMBI N640 ATNAR
Aircraft A359/H-SABDE2E3GHIJ1J2J3J4J5LM1OP2RVWXYZ/LB2D1

Departure

Time 2026-05-07 11:32
Airport Dubai International Airport (OMDB)

Arrival

Time N/A
Airport Adelaide International Airport (YPAD)
Time Latitude Longitude Altitude Speed Heading
2026-05-07 10:46 25.24744 55.36161 27 ft 0 kts 31°
2026-05-07 11:15 25.24733 55.36154 27 ft 3 kts 31°
2026-05-07 11:15 25.24713 55.36140 26 ft 3 kts 31°
2026-05-07 11:16 25.24697 55.36129 24 ft 3 kts 29°
2026-05-07 11:16 25.24678 55.36122 25 ft 3 kts 347°
2026-05-07 11:16 25.24660 55.36133 26 ft 3 kts 310°
2026-05-07 11:16 25.24647 55.36152 27 ft 3 kts 302°
2026-05-07 11:17 25.24635 55.36173 26 ft 3 kts 302°
2026-05-07 11:17 25.24633 55.36177 26 ft 1 kts 302°
2026-05-07 11:19 25.24637 55.36170 26 ft 3 kts 302°
2026-05-07 11:20 25.24660 55.36129 26 ft 9 kts 302°
2026-05-07 11:20 25.24700 55.36059 27 ft 12 kts 302°
2026-05-07 11:20 25.24743 55.35982 27 ft 12 kts 302°
2026-05-07 11:20 25.24786 55.35906 27 ft 12 kts 301°
2026-05-07 11:21 25.24829 55.35831 27 ft 12 kts 302°
2026-05-07 11:21 25.24875 55.35751 27 ft 13 kts 304°
2026-05-07 11:21 25.24933 55.35664 27 ft 15 kts 306°
2026-05-07 11:21 25.24991 55.35566 27 ft 16 kts 302°
2026-05-07 11:22 25.25052 55.35460 27 ft 16 kts 302°
2026-05-07 11:22 25.25108 55.35360 27 ft 15 kts 301°
2026-05-07 11:22 25.25169 55.35260 27 ft 16 kts 308°
2026-05-07 11:22 25.25236 55.35157 27 ft 18 kts 303°
2026-05-07 11:23 25.25304 55.35036 27 ft 20 kts 302°
2026-05-07 11:23 25.25392 55.34913 27 ft 20 kts 330°
2026-05-07 11:23 25.25514 55.34931 27 ft 18 kts 29°
2026-05-07 11:23 25.25625 55.35004 27 ft 18 kts 30°
2026-05-07 11:24 25.25728 55.35081 27 ft 17 kts 53°
2026-05-07 11:24 25.25767 55.35200 27 ft 16 kts 51°
2026-05-07 11:24 25.25857 55.35273 27 ft 16 kts 32°
2026-05-07 11:24 25.25949 55.35339 28 ft 16 kts 40°
2026-05-07 11:25 25.26001 55.35440 28 ft 15 kts 79°
2026-05-07 11:25 25.25986 55.35556 27 ft 16 kts 114°
2026-05-07 11:25 25.25925 55.35668 28 ft 18 kts 121°
2026-05-07 11:25 25.25853 55.35796 28 ft 21 kts 122°
2026-05-07 11:26 25.25771 55.35938 28 ft 23 kts 121°
2026-05-07 11:26 25.25684 55.36094 29 ft 25 kts 122°
2026-05-07 11:26 25.25590 55.36262 29 ft 26 kts 119°
2026-05-07 11:26 25.25498 55.36430 28 ft 26 kts 122°
2026-05-07 11:27 25.25405 55.36595 28 ft 25 kts 121°
2026-05-07 11:27 25.25312 55.36758 28 ft 25 kts 122°
2026-05-07 11:27 25.25223 55.36919 28 ft 24 kts 123°
2026-05-07 11:27 25.25136 55.37074 29 ft 23 kts 121°
2026-05-07 11:28 25.25048 55.37225 29 ft 24 kts 123°
2026-05-07 11:28 25.24963 55.37379 30 ft 23 kts 121°
2026-05-07 11:28 25.24878 55.37530 29 ft 23 kts 121°
2026-05-07 11:28 25.24795 55.37681 29 ft 23 kts 123°
2026-05-07 11:29 25.24717 55.37816 28 ft 16 kts 122°
2026-05-07 11:29 25.24667 55.37904 28 ft 14 kts 122°
2026-05-07 11:29 25.24617 55.37994 29 ft 14 kts 122°
2026-05-07 11:29 25.24567 55.38082 29 ft 14 kts 117°
2026-05-07 11:30 25.24586 55.38165 29 ft 12 kts 39°
2026-05-07 11:30 25.24656 55.38209 29 ft 11 kts 26°
2026-05-07 11:30 25.24711 55.38189 30 ft 8 kts 318°
2026-05-07 11:30 25.24737 55.38147 31 ft 8 kts 303°
2026-05-07 11:31 25.24813 55.38010 31 ft 47 kts 301°
2026-05-07 11:31 25.25087 55.37521 33 ft 101 kts 302°
2026-05-07 11:31 25.25542 55.36700 31 ft 148 kts 302°
2026-05-07 11:31 25.26149 55.35616 217 ft 174 kts 300°
2026-05-07 11:32 25.27380 55.33358 1322 ft 171 kts 291°
2026-05-07 11:32 25.27909 55.32155 1563 ft 180 kts 288°
2026-05-07 11:32 25.28547 55.30902 1735 ft 194 kts 296°
2026-05-07 11:33 25.29075 55.29500 1935 ft 202 kts 275°
2026-05-07 11:33 25.28877 55.27979 2280 ft 203 kts 248°
2026-05-07 11:33 25.28302 55.26516 2542 ft 214 kts 245°
2026-05-07 11:33 25.27644 55.24993 2855 ft 224 kts 244°
2026-05-07 11:34 25.26967 55.23434 3311 ft 227 kts 244°
2026-05-07 11:34 25.26281 55.21840 3721 ft 231 kts 245°
2026-05-07 11:34 25.25589 55.20220 4137 ft 235 kts 245°
2026-05-07 11:34 25.24860 55.18602 4590 ft 237 kts 240°
2026-05-07 11:35 25.23723 55.17258 4926 ft 247 kts 211°
2026-05-07 11:35 25.22054 55.16719 5222 ft 258 kts 181°
2026-05-07 11:35 25.20252 55.16847 5589 ft 264 kts 168°
2026-05-07 11:35 25.18656 55.17585 5977 ft 266 kts 141°
2026-05-07 11:36 25.17447 55.19148 6237 ft 274 kts 118°
2026-05-07 11:36 25.16532 55.21052 6476 ft 284 kts 114°
2026-05-07 11:36 25.15642 55.23009 6919 ft 287 kts 115°
2026-05-07 11:36 25.14729 55.24978 7430 ft 288 kts 115°
2026-05-07 11:37 25.13806 55.26936 7961 ft 288 kts 116°
2026-05-07 11:37 25.12874 55.28900 8480 ft 290 kts 117°
2026-05-07 11:37 25.11932 55.30867 9004 ft 290 kts 117°
2026-05-07 11:37 25.10987 55.32835 9543 ft 291 kts 117°
2026-05-07 11:38 25.10071 55.34827 10035 ft 292 kts 114°
2026-05-07 11:38 25.09238 55.36876 10556 ft 294 kts 113°
2026-05-07 11:38 25.08409 55.38946 11058 ft 295 kts 114°
2026-05-07 11:38 25.07575 55.41006 11639 ft 294 kts 115°
2026-05-07 11:39 25.06750 55.43061 12222 ft 295 kts 113°
2026-05-07 11:39 25.05938 55.45188 12481 ft 308 kts 112°
2026-05-07 11:39 25.05093 55.47415 12681 ft 321 kts 113°
2026-05-07 11:39 25.04213 55.49723 12928 ft 332 kts 113°
2026-05-07 11:40 25.03301 55.52102 13185 ft 342 kts 113°
2026-05-07 11:40 25.02350 55.54551 13393 ft 353 kts 114°
2026-05-07 11:40 25.01193 55.56981 13568 ft 364 kts 120°
2026-05-07 11:40 24.99890 55.59411 13743 ft 372 kts 121°
2026-05-07 11:41 24.98546 55.61884 13940 ft 380 kts 121°
2026-05-07 11:41 24.97174 55.64407 14073 ft 389 kts 121°
2026-05-07 11:41 24.95793 55.66954 14242 ft 396 kts 121°
2026-05-07 11:41 24.94351 55.69561 14535 ft 398 kts 123°
2026-05-07 11:42 24.92768 55.72069 14931 ft 399 kts 126°
2026-05-07 11:42 24.91133 55.74540 15264 ft 401 kts 126°
2026-05-07 11:42 24.89471 55.77040 15466 ft 407 kts 126°
2026-05-07 11:42 24.87792 55.79565 15748 ft 410 kts 126°
2026-05-07 11:43 24.86104 55.82107 16035 ft 413 kts 126°
2026-05-07 11:43 24.84408 55.84662 16422 ft 413 kts 126°
2026-05-07 11:43 24.82700 55.87223 16715 ft 417 kts 126°
2026-05-07 11:43 24.80960 55.89789 16966 ft 421 kts 126°
2026-05-07 11:44 24.79199 55.92372 17264 ft 423 kts 127°
2026-05-07 11:44 24.77286 55.94842 17607 ft 425 kts 132°
2026-05-07 11:44 24.75211 55.97161 17912 ft 427 kts 135°
2026-05-07 11:44 24.73041 55.99411 18158 ft 430 kts 136°
2026-05-07 11:45 24.70825 56.01637 18406 ft 433 kts 137°
2026-05-07 11:45 24.68591 56.03867 18665 ft 435 kts 137°
2026-05-07 11:45 24.66352 56.06120 18945 ft 437 kts 137°
2026-05-07 11:45 24.64115 56.08388 19221 ft 438 kts 136°
2026-05-07 11:46 24.61885 56.10667 19490 ft 440 kts 136°